Weather reports worldwide

Advertisment
Medina De Pomar, Spain (8063): temperature & dewpoint: 13.11.2019 19:00:00 - 19.11.2019 19:00:00 (CET)Medina De Pomar, Spain (8063): wind speed & gusts: 13.11.2019 19:00:00 - 19.11.2019 19:00:00 (CET)Medina De Pomar, Spain (8063): wind direction: 13.11.2019 19:00:00 - 19.11.2019 19:00:00 (CET)Medina De Pomar, Spain (8063): reduced air pressure: 13.11.2019 19:00:00 - 19.11.2019 19:00:00 (CET)Medina De Pomar, Spain (8063): visibility: 13.11.2019 19:00:00 - 19.11.2019 19:00:00 (CET)Medina De Pomar, Spain (8063): sunshine duration: 13.11.2019 19:00:00 - 19.11.2019 19:00:00 (CET)Medina De Pomar, Spain (8063): precipitation: 13.11.2019 19:00:00 - 19.11.2019 19:00:00 (CET)
Date & Time tt [°C] td [°C] ff [km/h] ff [kn] fx [km/h] fx [kn] dd ppp [hPa] vv [km] sd [min] rr [mm]
19.11.2019 19:00:00 - - - - - - - - - - -
19.11.2019 18:00:00 5,0 2,9 3 2 6 3 ESE 1015,7 12 0 0,0
19.11.2019 17:00:00 6,5 3,4 0 0 7 4 N 1015,4 20 0 0,0
19.11.2019 16:00:00 6,9 3,6 3 1 5 3 WNW 1015,6 20 10 0,0
19.11.2019 15:00:00 6,6 3,4 1 1 8 4 SE 1016,1 15 60 0,0
19.11.2019 14:00:00 5,1 2,9 3 1 6 3 W 1017,5 16 27 0,0
19.11.2019 13:00:00 3,2 2,1 2 1 6 4 W 1019,0 6 0 -
19.11.2019 12:00:00 2,2 1,3 3 2 9 5 NNE 1020,2 2,9 0 0,0
19.11.2019 11:00:00 1,9 1,0 2 1 10 6 NW - - 0 0,0
19.11.2019 10:00:00 1,8 0,9 4 2 11 6 SSE - - 0 0,0
19.11.2019 09:00:00 1,7 0,9 5 3 8 5 S 1020,9 1,3 0 0,0
19.11.2019 08:00:00 1,7 0,6 1 1 5 3 SSE 1020,8 0,4 0 0,0
19.11.2019 07:00:00 1,7 0,6 1 1 4 2 SSW 1020,7 0,3 0 -
19.11.2019 06:00:00 1,3 0,2 2 1 6 4 ENE 1020,9 0,5 0 0,0
19.11.2019 05:00:00 1,1 0,2 2 1 5 3 SW 1020,7 0,1 0 0,0
19.11.2019 04:00:00 1,7 0,6 2 1 8 4 ESE 1020,7 0,3 0 0,0
19.11.2019 03:00:00 3,0 1,9 2 1 6 4 ENE 1020,5 14 0 0,0
19.11.2019 02:00:00 3,1 1,7 2 1 6 3 ENE 1020,8 16 0 0,0
19.11.2019 01:00:00 3,7 2,3 3 2 16 9 SSE 1020,9 20 0 -
19.11.2019 00:00:00 3,6 2,3 4 2 14 7 ESE 1021,4 16 0 0,0
18.11.2019 23:00:00 3,8 2,3 3 1 5 3 WNW 1021,4 20 0 0,0
18.11.2019 22:00:00 3,5 2,1 5 3 6 3 NE 1021,3 20 0 0,0
18.11.2019 21:00:00 2,4 0,6 3 2 5 3 SE 1021,5 18 0 0,0
18.11.2019 20:00:00 4,1 1,9 0 0 7 4 N 1020,4 17 0 0,0
18.11.2019 19:00:00 5,6 2,9 3 1 9 5 WSW 1020,1 20 0 -
18.11.2019 18:00:00 6,0 3,0 2 1 10 5 WSW 1019,7 20 0 0,0
18.11.2019 17:00:00 6,7 2,9 2 1 14 8 WSW 1019,1 20 0 0,0
18.11.2019 16:00:00 7,3 2,5 6 3 18 10 WNW 1018,3 20 0 0,0
18.11.2019 15:00:00 7,5 2,1 7 4 17 9 N 1018,0 20 27 0,0
18.11.2019 14:00:00 6,6 2,7 7 4 34 18 N 1018,2 20 9 0,0
18.11.2019 13:00:00 7,1 3,8 7 4 32 17 NNW 1017,7 20 10 -
18.11.2019 12:00:00 7,1 2,7 6 3 18 10 WNW 1017,8 20 12 0,0
18.11.2019 11:00:00 6,7 3,4 8 4 18 10 W 1017,8 20 16 0,0
18.11.2019 10:00:00 4,6 2,9 4 2 10 5 WSW 1017,9 20 0 0,0
18.11.2019 09:00:00 4,2 2,7 5 3 14 8 W 1017,4 20 0 0,0
18.11.2019 08:00:00 4,2 3,0 4 2 13 7 NW 1016,6 20 0 0,0
18.11.2019 07:00:00 4,1 2,9 4 2 12 7 NW 1015,9 20 0 -
18.11.2019 06:00:00 3,9 2,7 3 2 8 4 NW 1015,4 20 0 0,0
18.11.2019 05:00:00 3,8 2,7 2 1 7 4 W 1015,1 20 0 0,0
18.11.2019 04:00:00 4,1 2,9 2 1 9 5 SW 1014,6 11 0 0,0
18.11.2019 03:00:00 3,8 2,7 2 1 7 4 ENE 1014,3 20 0 0,0
18.11.2019 02:00:00 3,7 2,3 1 1 7 4 N 1013,7 16 0 0,0
18.11.2019 01:00:00 3,7 2,1 2 1 9 5 W 1013,7 8 0 -
18.11.2019 00:00:00 3,9 1,9 2 1 16 9 WSW 1012,9 19 0 0,0
17.11.2019 23:00:00 4,3 1,9 4 2 29 16 WSW 1012,6 20 0 0,0
17.11.2019 22:00:00 5,0 2,1 7 4 23 13 WNW 1011,5 20 0 0,0
17.11.2019 21:00:00 5,6 3,2 4 2 22 12 WNW 1010,9 20 0 0,0
17.11.2019 20:00:00 5,9 4,1 3 2 8 5 WNW 1010,3 20 0 0,0
17.11.2019 19:00:00 6,8 5,0 2 1 10 6 WSW 1009,9 20 0 -
17.11.2019 18:00:00 7,7 4,8 1 1 12 7 SW 1009,5 20 0 0,0
17.11.2019 17:00:00 9,2 5,0 4 2 11 6 SSW 1009,1 20 13 0,0
17.11.2019 16:00:00 7,7 4,6 4 2 18 10 W 1009,7 20 0 0,0
17.11.2019 15:00:00 8,2 4,8 7 4 18 10 SSW 1009,9 20 2 0,0
17.11.2019 14:00:00 7,2 4,5 5 3 18 10 SSW 1010,3 20 0 0,0
17.11.2019 13:00:00 7,1 4,3 6 4 16 9 W 1011,1 20 0 -
17.11.2019 12:00:00 6,7 4,1 4 2 13 7 W 1011,7 20 0 0,0
17.11.2019 11:00:00 6,0 3,6 8 5 21 12 W 1011,9 20 0 0,0
17.11.2019 10:00:00 4,6 3,2 3 2 16 8 N 1012,7 20 0 0,0
17.11.2019 09:00:00 3,8 2,7 4 2 9 5 N 1013,3 20 0 0,0
17.11.2019 08:00:00 3,3 2,1 3 2 13 7 NNE 1013,1 20 0 0,0
17.11.2019 07:00:00 3,1 1,9 3 2 8 4 SSE 1013,6 17 0 -
17.11.2019 06:00:00 3,5 2,1 1 1 5 3 ESE 1013,9 9 0 0,0
17.11.2019 05:00:00 3,5 2,1 1 1 6 3 NE 1014,3 14 0 0,0
17.11.2019 04:00:00 3,5 1,9 2 1 6 4 SE 1014,7 15 0 0,0
17.11.2019 03:00:00 3,6 1,9 3 1 9 5 NNE 1014,9 20 0 0,0
17.11.2019 02:00:00 3,4 1,7 3 1 10 5 NW 1015,4 20 0 0,0
17.11.2019 01:00:00 3,3 1,5 4 2 9 5 S 1015,9 20 0 -
17.11.2019 00:00:00 3,3 1,5 3 1 6 4 ESE 1015,8 20 0 0,0
16.11.2019 23:00:00 3,2 1,5 3 2 11 6 SSE 1016,4 20 0 0,0
16.11.2019 22:00:00 3,0 1,5 2 1 9 5 WNW 1016,3 20 0 0,0
16.11.2019 21:00:00 2,4 0,6 7 4 14 8 SSE 1016,5 20 0 0,0
16.11.2019 20:00:00 3,7 1,5 4 2 13 7 SE 1016,3 20 0 0,0
16.11.2019 19:00:00 4,2 1,9 2 1 9 5 E 1015,9 20 0 -
16.11.2019 18:00:00 5,0 2,1 3 2 15 8 WSW 1015,5 20 0 0,0
16.11.2019 17:00:00 5,5 2,1 8 4 27 14 WNW 1015,1 10 0 0,0
16.11.2019 16:00:00 6,4 2,1 4 2 22 12 NW 1014,1 20 9 0,0
16.11.2019 15:00:00 7,0 1,9 8 4 26 14 W 1013,9 20 28 0,0
16.11.2019 14:00:00 6,7 2,9 9 5 28 15 W 1013,8 20 13 0,0
16.11.2019 13:00:00 4,5 1,1 6 3 23 12 W 1014,9 20 1 -
16.11.2019 12:00:00 5,0 2,1 8 5 22 12 W 1014,6 20 12 0,0
16.11.2019 11:00:00 2,3 1,5 5 3 13 7 W 1015,0 20 0 0,0
16.11.2019 10:00:00 0,9 0,0 4 2 10 6 NNE 1015,2 20 0 0,0
16.11.2019 09:00:00 0,1 -0,7 5 3 13 7 SSE 1015,0 20 0 0,0
16.11.2019 08:00:00 -0,3 -1,2 8 5 14 8 SSE 1014,5 20 0 0,0
16.11.2019 07:00:00 -0,5 -1,4 8 5 14 7 SSE 1014,2 1,7 0 -
16.11.2019 06:00:00 -0,6 -1,4 5 3 10 5 SSE 1014,1 0,4 0 0,0
16.11.2019 05:00:00 -0,2 -1,0 5 3 13 7 SSE 1013,9 0,7 0 0,0
16.11.2019 04:00:00 -0,4 -1,2 5 3 9 5 SE 1013,7 0,3 0 0,0
16.11.2019 03:00:00 -0,2 -1,0 4 2 13 7 E 1013,7 0,3 0 0,0
16.11.2019 02:00:00 0,1 -1,0 6 3 12 7 SSE 1012,9 0,3 0 0,0
16.11.2019 01:00:00 0,1 -1,0 3 1 9 5 S 1012,5 18 0 -
16.11.2019 00:00:00 0,5 -0,5 3 1 5 3 N 1011,6 20 0 0,0
15.11.2019 23:00:00 0,5 -0,5 1 1 5 3 W 1011,4 14 0 0,0
15.11.2019 22:00:00 0,5 -0,5 2 1 5 3 E 1011,0 20 0 0,0
15.11.2019 21:00:00 0,4 -0,7 1 1 4 2 N 1010,2 4,0 0 0,0
15.11.2019 20:00:00 0,4 -1,0 0 0 3 2 N 1009,4 2,1 0 0,0
15.11.2019 19:00:00 1,1 -0,3 1 1 5 3 W 1008,6 3,3 0 -
15.11.2019 18:00:00 1,5 -0,3 3 2 8 4 ESE 1007,7 7 0 0,0
15.11.2019 17:00:00 2,8 0,9 2 1 6 4 E 1006,9 10 0 1,2
15.11.2019 16:00:00 3,1 1,3 2 1 6 4 NNE 1006,3 15 0 0,4
15.11.2019 15:00:00 2,5 0,9 1 1 10 5 SE 1006,2 20 0 0,6
15.11.2019 14:00:00 1,7 0,0 3 2 18 10 W 1006,6 20 0 8,0
15.11.2019 13:00:00 3,5 1,5 3 2 24 13 WNW 1005,7 14 0 -
15.11.2019 12:00:00 2,7 0,9 6 3 34 18 WNW 1005,9 15 0 0,0
15.11.2019 11:00:00 3,5 1,7 10 6 29 16 W 1004,8 9 0 0,2
15.11.2019 10:00:00 3,2 1,5 10 6 26 14 W 1004,4 6 0 0,2
15.11.2019 09:00:00 3,2 1,5 10 5 32 18 W 1003,5 15 0 0,0
15.11.2019 08:00:00 2,9 1,1 6 3 26 14 W 1003,3 8 0 0,2
15.11.2019 07:00:00 3,2 1,5 10 5 23 13 W 1002,5 10 0 -
15.11.2019 06:00:00 2,8 1,1 6 3 23 12 W 1002,5 12 0 0,2
15.11.2019 05:00:00 2,2 0,6 3 1 13 7 SW 1002,6 20 0 0,0
15.11.2019 04:00:00 1,8 0,0 3 1 21 11 WNW 1003,1 6 0 0,2
15.11.2019 03:00:00 2,9 0,2 4 2 16 9 W 1003,2 20 0 0,2
15.11.2019 02:00:00 2,0 -0,3 5 3 13 7 S 1003,1 20 0 0,0
15.11.2019 01:00:00 1,7 -0,3 2 1 13 7 SSW 1003,4 20 0 -
15.11.2019 00:00:00 2,3 0,2 4 2 12 6 SSW 1003,1 20 0 0,2
14.11.2019 23:00:00 1,8 -0,5 2 1 9 5 WSW 1002,9 20 0 0,0
14.11.2019 22:00:00 3,0 0,6 2 1 10 5 W 1002,6 20 0 0,2
14.11.2019 21:00:00 3,5 1,1 4 2 15 8 NNW 1001,7 20 0 0,2
14.11.2019 20:00:00 3,8 1,3 4 2 20 11 WNW 1001,0 20 0 0,2
14.11.2019 19:00:00 5,0 1,1 8 4 24 13 W 999,8 20 0 -
14.11.2019 18:00:00 5,4 0,4 2 1 17 9 WSW 998,8 20 0 0,2
14.11.2019 17:00:00 6,0 0,0 9 5 19 11 WSW 998,3 20 16 0,2
14.11.2019 16:00:00 6,8 0,0 9 5 31 17 W 997,9 20 0 0,2
14.11.2019 15:00:00 7,9 -0,5 3 2 24 13 WSW 997,8 20 32 0,2
14.11.2019 14:00:00 8,4 -0,7 8 5 29 16 WSW 998,0 20 59 0,2
14.11.2019 13:00:00 8,5 -0,3 11 6 28 15 SW 999,2 20 59 -
14.11.2019 12:00:00 8,3 -0,5 10 5 22 12 SW 1000,3 20 60 0,2
14.11.2019 11:00:00 7,3 -0,3 5 3 23 12 SW 1001,2 20 54 0,2
14.11.2019 10:00:00 5,9 2,1 9 5 22 12 SSE 1001,3 20 56 0,4
14.11.2019 09:00:00 1,8 0,4 7 4 19 10 SSE 1004,2 20 0 0,2
14.11.2019 08:00:00 1,8 0,0 3 2 16 8 SSE 1004,2 20 0 0,4
14.11.2019 07:00:00 3,0 0,2 5 3 18 10 S 1003,9 20 0 -
14.11.2019 06:00:00 3,7 1,3 3 2 12 6 SW 1004,1 20 0 0,2
14.11.2019 05:00:00 3,5 1,3 3 2 11 6 SW 1004,6 20 0 0,4
14.11.2019 04:00:00 3,8 1,3 6 3 21 12 WNW 1005,2 20 0 0,4
14.11.2019 03:00:00 4,7 2,5 4 2 29 15 NW 1005,6 13 0 0,4
14.11.2019 02:00:00 6,2 3,8 8 4 26 14 N 1004,7 7 0 0,0
14.11.2019 01:00:00 9,3 3,0 10 6 32 18 W 1004,0 20 0 -
14.11.2019 00:00:00 8,1 3,4 5 3 23 13 N 1005,2 20 0 0,0
13.11.2019 23:00:00 7,1 4,1 6 3 24 13 NNW 1006,3 20 0 0,0
13.11.2019 22:00:00 6,3 4,6 8 4 18 10 N 1007,4 20 0 0,0
13.11.2019 21:00:00 6,9 4,6 3 2 16 9 NNW 1007,9 20 0 0,0
13.11.2019 20:00:00 6,7 4,8 4 2 10 6 N 1009,0 20 0 0,0
13.11.2019 19:00:00 7,4 5,1 5 3 9 5 NNE 1009,9 20 0 -

tt = temperature
td = dewpoint
ff = wind speed
fx = gusts
dd = wind direction
ppp = reduced air pressure
vv = visibility
sd = sunshine duration
rr = precipitation

Next stations